User: anonymous   Login
Location: Caltech
(34.1382°N, 118.1253°W)
Time: 00:20:31
(UTC-07:00)
Language:

Oscar 10/S400 - Orbit

View from above orbital plane
View from above orbital plane
View from above satellite
View from above satellite

Ground track
Ground track

The orbit data is extracted from the following two-line orbital elements,

1 14129U 83058B   16242.48293833 -.00000480  00000-0  00000+0 0  9998
2 14129  26.8157  81.1749 6005782 227.2721  31.5982  2.05870212221818
Epoch (UTC): 29 August 2016 11:35:25
Eccentricity: 0.6005782
inclination: 26.8157°
perigee height: 4047 km
apogee height: 35400 km
right ascension of ascending node: 81.1749°
argument of perigee: 227.2721°
revolutions per day: 2.05870212
mean anomaly at epoch: 31.5982°
orbit number at epoch: 22181

The dashed part of the orbit path shows where the satellite is in the earth's shadow,  

DLR